Main page
METAR-TAF:

METAR-TAF

Airports :

DeLand Municipal Airport

DeLand, Florida, United States

latitude: 29-04-01N, longitude: 081-17-02W, elevation: 79 ft

Current weather observation

The report was made 29 minutes ago, at 03:50 UTC
Calm wind
Temperature 72°F
Humidity 88%
Pressure 30.08 in. Hg
Visibility: 10 miles
Broken clouds at a height of 6000 ft

METAR: KDED 260350Z AUTO 00000KT 10SM BKN060 22/20 A3008 RMK AO2 T02200199

Time: 00:19 (04:19 UTC)


TAF: missing

Weather observations and forecasts of more than 4000 airports (METAR and TAF reports).

The available stations are represented by yellow and red dots on the map.

Hover mouse over dot to see the name of the station.

Then click to see weather observations and forecasts.

To change the map : click on the green buttons with a black cross to zoom in, on the green button with a dash to zoom out, or on the green arrows for adjacent maps.


METAR-TAF: